TimeMST,TemperatureF,Dew PointF,Humidity,Sea Level PressureIn,VisibilityMPH,Wind Direction,Wind SpeedMPH,Gust SpeedMPH,PrecipitationIn,Events,Conditions,WindDirDegrees,DateUTC
12:52 AM,14.0,3.9,64,30.10,10.0,SSE,3.5,-,N/A,,Clear,160,2012-12-06 07:52:00
1:52 AM,15.1,5.0,64,30.06,10.0,Calm,Calm,-,N/A,,Clear,0,2012-12-06 08:52:00
2:52 AM,14.0,5.0,67,30.07,10.0,West,5.8,-,N/A,,Clear,280,2012-12-06 09:52:00
3:52 AM,10.9,3.0,70,30.07,10.0,Calm,Calm,-,N/A,,Clear,0,2012-12-06 10:52:00
4:52 AM,14.0,5.0,67,30.10,10.0,Calm,Calm,-,N/A,,Clear,0,2012-12-06 11:52:00
5:52 AM,10.9,3.0,70,30.13,10.0,Calm,Calm,-,N/A,,Clear,0,2012-12-06 12:52:00
6:52 AM,9.0,3.0,77,30.18,10.0,SSE,4.6,-,N/A,,Clear,150,2012-12-06 13:52:00
7:52 AM,14.0,6.1,71,30.19,10.0,Calm,Calm,-,N/A,,Clear,0,2012-12-06 14:52:00
8:52 AM,25.0,12.9,60,30.13,10.0,Calm,Calm,-,N/A,,Clear,0,2012-12-06 15:52:00
9:52 AM,34.0,15.1,46,30.09,10.0,Calm,Calm,-,N/A,,Clear,0,2012-12-06 16:52:00
10:52 AM,37.9,17.1,43,30.06,10.0,Calm,Calm,-,N/A,,Clear,0,2012-12-06 17:52:00
11:52 AM,45.0,16.0,31,30.00,10.0,Variable,5.8,-,N/A,,Clear,0,2012-12-06 18:52:00
12:52 PM,48.9,17.1,28,29.96,10.0,NE,6.9,-,N/A,,Clear,50,2012-12-06 19:52:00
1:52 PM,48.9,18.0,29,29.94,10.0,Calm,Calm,-,N/A,,Overcast,0,2012-12-06 20:52:00
2:52 PM,51.1,19.0,28,29.91,10.0,NNE,3.5,-,N/A,,Clear,20,2012-12-06 21:52:00
3:52 PM,46.9,21.0,36,29.96,10.0,North,12.7,-,N/A,,Partly Cloudy,360,2012-12-06 22:52:00
4:52 PM,39.9,21.9,49,29.99,10.0,North,8.1,-,N/A,,Clear,360,2012-12-06 23:52:00
5:52 PM,37.0,30.0,76,30.03,10.0,North,12.7,-,N/A,,Clear,360,2012-12-07 00:52:00
6:52 PM,34.0,30.0,85,30.06,10.0,NNE,8.1,-,N/A,,Clear,20,2012-12-07 01:52:00
7:52 PM,26.1,24.1,92,30.09,10.0,WSW,5.8,-,N/A,,Clear,250,2012-12-07 02:52:00
8:52 PM,21.9,19.9,92,30.05,10.0,WSW,6.9,-,N/A,,Scattered Clouds,240,2012-12-07 03:52:00
9:52 PM,21.0,18.0,88,30.02,10.0,West,6.9,-,N/A,,Clear,270,2012-12-07 04:52:00
10:52 PM,16.0,14.0,92,30.02,10.0,SSE,8.1,-,N/A,,Clear,160,2012-12-07 05:52:00
11:52 PM,18.0,15.1,88,29.97,10.0,West,3.5,-,N/A,,Clear,260,2012-12-07 06:52:00